Location: Seattle
(47.6064°N, 122.3308°W)
Time: 15:14:05
(UTC-07:00)

S-56A Canister/Altair - Pass Details

Date: 03 August 2021
Orbit: 632 x 2500 km, 38.9° (Epoch: 15 September)

Event Time Altitude Azimuth Distance (km) Brightness Sun altitude
Rises 21:00:19 0° 281° (WNW) 6,140 13.8 -3.8°
Reaches altitude 10° 21:04:53 10° 273° (W) 5,167 12.9 -4.5°
Maximum altitude 21:17:15 33° 218° (SW) 3,440 10.9 -6.2°
Drops below altitude 10° 21:27:56 10° 162° (SSE) 4,427 10.9 -7.7°
Enters shadow 21:30:28 - 155° (SSE) 4,947 11.1 -8.0°
